Regional Weather Roundup
Issued by NWS Green Bay, WI

Home | Current Version | Previous Version | Graphics & Text | Print | Product List | Glossary Off
Versions: 1 2 3 4 5 6 7 8 9 10 11 12 13 14 15 16 17 18 19 20 21 22 23 24 25 26 27 28 29 30 31 32 33 34 35 36 37 38 39 40 41 42 43 44 45 46 47 48 49 50

000
ASUS43 KGRB 272200
RWRGRB

NORTH-CENTRAL AND NORTHEAST WISCONSIN REGIONAL WEATHER ROUNDUP
NATIONAL WEATHER SERVICE GREEN BAY WI
500 PM CDT MON MAR 27 2017

WIZ005-009-010>012-018-019-272300-
NORTH CENTRAL WISCONSIN

CITY           SKY/WX    TMP DP  RH WIND       PRES   REMARKS
IRONWOOD       CLOUDY    48  29  47 N6        29.97S
MANITOWISH WTR NOT AVBL
ARBOR VITAE    NOT AVBL
EAGLE RIVER    NOT AVBL
LAND O LAKES   NOT AVBL
RHINELANDER    CLOUDY    46  35  65 NW6       29.94F
PHILLIPS       NOT AVBL
ANTIGO         NOT AVBL
TOMAHAWK       NOT AVBL
MERRILL        NOT AVBL
$$

WIZ013-073-272300-
NORTHEAST WISCONSIN

CITY           SKY/WX    TMP DP  RH WIND       PRES   REMARKS
IRON MOUNTAIN  CLOUDY    42  34  73 NW9       29.95R
MARINETTE        N/A    N/A N/A N/A MISG        N/A
$$

WIZ017-030-035>037-045-272300-
CENTRAL WISCONSIN

CITY           SKY/WX    TMP DP  RH WIND       PRES   REMARKS
MEDFORD        NOT AVBL
WAUSAU         CLOUDY    43  37  79 N5        29.94R
MOSINEE        CLOUDY    43  39  87 N5        29.96S
MARSHFIELD     CLOUDY    43  36  76 N6        29.93F
WISC RAPIDS    CLOUDY    43  40  89 N7        29.96S
STEVENS POINT  NOT AVBL
WAUPACA        NOT AVBL
SHAWANO        NOT AVBL
CLINTONVILLE   NOT AVBL
WAUTOMA        CLOUDY    46  42  86 N6        29.95R
$$

WIZ038-039-048-051-272300-
FOX VALLEY

CITY           SKY/WX    TMP DP  RH WIND       PRES   REMARKS
NWS GREEN BAY  CLOUDY    41  37  86 NE6       29.97R
APPLETON       CLOUDY    43  41  93 N7        29.94R
OSHKOSH        CLOUDY    44  38  79 NE7       29.94S
FOND DU LAC    CLOUDY    45  38  76 N10       29.94S
$$

WIZ022-050-052-272300-
EAST CENTRAL WISCONSIN

CITY           SKY/WX    TMP DP  RH WIND       PRES   REMARKS
EPHRAIM        NOT AVBL
WASHINGTON ISL NOT AVBL
STURGEON BAY   CLOUDY    39  35  86 N7        29.98R
MANITOWOC      NOT AVBL
SHEBOYGAN      CLOUDY    39  37  92 E8        29.95R
$$

LMZ563-521-522-541>543-272300-
LAKESHORE

STATION/POSITION TIME  TEMP    WIND        PRES    VSBY  WAVE
                       AIR SEA DIR/SP/G                  HT/PER
                 (UTC) (F)     (DEG/KT/KT) (MB)    (MI)  (FT/S)
SHEBOYGAN LKSHOR 2100   36      50/  6/  6 1014.6R
KEWAUNEE LKSHORE 2130   36      CALM  /  2 1014.4R
NORTHPORT PIER   2140   38        CALM     1014.6S
CHAMBERS ISLAND  2140   38        CALM     1014.6S
MENOMINEE LKSHOR 2130   35     120/  3/  4 1013.9R
$$



USA.gov is the U.S. government's official web portal to all federal, state and local government web resources and services.